| time (UTC) | temp F | wind direction | speed MPH | gust MPH | rain 1hr in | rain 24hr in | rain mn in | humidity % | barometer mb |
| 20260503202504 | 49 | 162 | 1.0 | 8.0 | 1.40 | 3.36 | 3.15 | 88 | 1003.2 |
| 20260503201504 | 49 | 176 | 1.0 | 5.0 | 1.40 | 3.36 | 3.12 | 88 | 1003.2 |
| 20260503201004 | 49 | 146 | 1.0 | 6.0 | 1.42 | 3.36 | 3.11 | 88 | 1003.2 |
| 20260503200505 | 49 | 162 | 3.0 | 6.0 | 1.42 | 3.36 | 3.10 | 87 | 1003.3 |
| 20260503200004 | 49 | 133 | 2.0 | 3.0 | 1.40 | 3.36 | 3.09 | 87 | 1003.3 |
| 20260503195504 | 49 | 187 | 1.0 | 3.0 | 1.40 | 3.36 | 3.08 | 87 | 1003.4 |
| 20260503195006 | 49 | 157 | 1.0 | 6.0 | 1.40 | 3.36 | 3.06 | 87 | 1003.4 |
| 20260503194504 | 49 | 149 | 2.0 | 7.0 | 1.40 | 3.36 | 3.05 | 87 | 1003.4 |
| 20260503194004 | 49 | 125 | 2.0 | 7.0 | 1.40 | 3.36 | 3.04 | 86 | 1003.4 |
| 20260503193505 | 49 | 159 | 3.0 | 8.0 | 1.42 | 3.36 | 3.03 | 86 | 1003.4 |
| 20260503193004 | 49 | 141 | 3.0 | 8.0 | 1.42 | 3.36 | 3.02 | 86 | 1003.4 |
| 20260503192504 | 49 | 189 | 2.0 | 7.0 | 1.40 | 3.36 | 3.01 | 86 | 1003.3 |
| 20260503192004 | 49 | 157 | 1.0 | 6.0 | 1.40 | 3.36 | 2.99 | 85 | 1003.5 |
| 20260503191504 | 49 | 153 | 2.0 | 6.0 | 1.40 | 3.36 | 2.98 | 85 | 1003.4 |
| 20260503191005 | 49 | 179 | 3.0 | 7.0 | 1.40 | 3.36 | 2.97 | 85 | 1003.4 |
| 20260503190505 | 49 | 176 | 3.0 | 8.0 | 1.40 | 3.36 | 2.96 | 85 | 1003.4 |
| 20260503190004 | 50 | 116 | 4.0 | 8.0 | 1.42 | 3.36 | 2.95 | 84 | 1003.4 |
| 20260503185504 | 50 | 199 | 2.0 | 8.0 | 1.42 | 3.36 | 2.94 | 84 | 1003.4 |
| 20260503184504 | 50 | 157 | 3.0 | 9.0 | 1.40 | 3.36 | 2.91 | 83 | 1003.3 |
| 20260503184004 | 50 | 165 | 3.0 | 9.0 | 1.40 | 3.36 | 2.90 | 83 | 1003.3 |
| 20260503183004 | 50 | 143 | 2.0 | 7.0 | 1.40 | 3.36 | 2.88 | 82 | 1003.3 |
| 20260503182504 | 50 | 88 | 2.0 | 9.0 | 1.42 | 3.37 | 2.87 | 81 | 1003.3 |
| 20260503182005 | 51 | 181 | 2.0 | 9.0 | 1.42 | 3.37 | 2.85 | 81 | 1003.1 |
| 20260503181505 | 51 | 152 | 3.0 | 7.0 | 1.40 | 3.37 | 2.84 | 80 | 1003.1 |
| 20260503181005 | 51 | 158 | 3.0 | 7.0 | 1.40 | 3.37 | 2.83 | 80 | 1003.1 |
| 20260503180503 | 51 | 181 | 2.0 | 7.0 | 1.40 | 3.37 | 2.82 | 79 | 1003.0 |
| 20260503180005 | 51 | 140 | 3.0 | 7.0 | 1.40 | 3.37 | 2.81 | 79 | 1002.9 |
| 20260503175503 | 52 | 148 | 2.0 | 8.0 | 1.40 | 3.36 | 2.79 | 78 | 1002.9 |
| 20260503174505 | 52 | 181 | 3.0 | 8.0 | 1.40 | 3.37 | 2.77 | 77 | 1002.9 |
| 20260503174004 | 52 | 163 | 3.0 | 9.0 | 1.40 | 3.37 | 2.76 | 77 | 1003.0 |
| 20260503173504 | 53 | 173 | 4.0 | 9.0 | 1.40 | 3.37 | 2.75 | 76 | 1003.0 |
| 20260503173004 | 53 | 178 | 2.0 | 7.0 | 1.40 | 3.37 | 2.74 | 75 | 1003.1 |
| 20260503172504 | 53 | 201 | 3.0 | 10.0 | 1.40 | 3.37 | 2.72 | 75 | 1003.2 |
| 20260503172005 | 54 | 155 | 4.0 | 10.0 | 1.40 | 3.36 | 2.71 | 74 | 1003.3 |
| 20260503171504 | 54 | 201 | 3.0 | 10.0 | 1.42 | 3.37 | 2.70 | 73 | 1003.3 |
| 20260503171004 | 54 | 138 | 4.0 | 10.0 | 1.40 | 3.37 | 2.69 | 72 | 1003.3 |
| 20260503170504 | 55 | 169 | 2.0 | 7.0 | 1.40 | 3.37 | 2.68 | 72 | 1003.3 |
| 20260503151005 | 54 | 103 | 2.0 | 6.0 | 1.40 | 3.37 | 2.41 | 70 | 1004.4 |
| 20260503150505 | 54 | 162 | 1.0 | 7.0 | 1.40 | 3.37 | 2.40 | 70 | 1004.4 |
| 20260503131004 | 51 | 87 | 1.0 | 5.0 | 1.42 | 3.37 | 2.13 | 73 | 1005.9 |
| 20260503130505 | 51 | 101 | 2.0 | 7.0 | 1.40 | 3.37 | 2.12 | 74 | 1005.9 |
| 20260503110504 | 49 | 91 | 1.0 | 3.0 | 1.40 | 3.38 | 1.83 | 76 | 1006.3 |
| 20260503090505 | 47 | 318 | 2.0 | 6.0 | 1.40 | 3.38 | 1.55 | 76 | 1006.3 |
| 20260503080504 | 47 | 4 | 1.0 | 8.0 | 1.42 | 3.38 | 1.41 | 77 | 1006.2 |
| 20260503072504 | 47 | 96 | 1.0 | 7.0 | 1.40 | 3.38 | 1.32 | 79 | 1005.7 |
| 20260503071005 | 47 | 88 | 2.0 | 3.0 | 1.40 | 3.38 | 1.28 | 81 | 1005.4 |
| 20260503054506 | 46 | 73 | 3.0 | 7.0 | 1.40 | 3.38 | 1.09 | 86 | 1005.0 |
| 20260503053504 | 46 | 335 | 2.0 | 3.0 | 1.40 | 3.38 | 1.06 | 88 | 1005.0 |
| 20260503053007 | 45 | 42 | 1.0 | 5.0 | 1.40 | 3.38 | 1.05 | 88 | 1005.1 |
| 20260503052505 | 45 | 306 | 2.0 | 6.0 | 1.40 | 3.38 | 1.04 | 88 | 1005.0 |
| 20260503052005 | 45 | 15 | 1.0 | 6.0 | 1.40 | 3.38 | 1.03 | 89 | 1004.9 |
| 20260503051505 | 45 | 51 | 1.0 | 6.0 | 1.42 | 3.38 | 1.02 | 89 | 1004.8 |
| 20260503051005 | 45 | 32 | 1.0 | 6.0 | 1.40 | 3.38 | 1.00 | 89 | 1004.7 |
| 20260503050504 | 45 | 64 | 1.0 | 6.0 | 1.40 | 3.38 | 9.97 | 89 | 1004.6 |
| 20260503050007 | 45 | 3 | 2.0 | 6.0 | 1.40 | 3.38 | 9.85 | 90 | 1004.7 |
| 20260503044504 | 44 | 39 | 1.0 | 6.0 | 1.42 | 3.38 | 9.51 | 90 | 1004.8 |
| 20260503044005 | 44 | 287 | 0.0 | 3.0 | 1.42 | 3.38 | 9.39 | 91 | 1004.8 |
| 20260503043505 | 44 | 284 | 0.0 | 7.0 | 1.40 | 3.38 | 9.27 | 91 | 1004.9 |
| 20260503043007 | 44 | 95 | 1.0 | 7.0 | 1.40 | 3.38 | 9.15 | 91 | 1004.9 |
| 20260503042505 | 44 | 110 | 1.0 | 6.0 | 1.40 | 3.38 | 9.03 | 91 | 1004.8 |
| 20260503042005 | 44 | 30 | 2.0 | 6.0 | 1.40 | 3.38 | 8.91 | 92 | 1004.8 |
| 20260503041505 | 44 | 49 | 0.0 | 6.0 | 1.40 | 3.38 | 8.79 | 92 | 1004.8 |
| 20260503041004 | 45 | 33 | 1.0 | 6.0 | 1.42 | 3.38 | 8.69 | 92 | 1004.8 |
| 20260503040504 | 45 | 31 | 1.0 | 3.0 | 1.42 | 3.38 | 8.57 | 92 | 1004.7 |
| 20260503040004 | 45 | 298 | 1.0 | 3.0 | 1.40 | 3.38 | 8.45 | 93 | 1004.7 |
| 20260503035505 | 45 | 84 | 1.0 | 3.0 | 1.40 | 3.38 | 8.33 | 93 | 1004.6 |
| 20260503035005 | 45 | 278 | 1.0 | 3.0 | 1.40 | 3.38 | 8.21 | 93 | 1004.6 |
| 20260503034506 | 45 | 27 | 2.0 | 3.0 | 1.40 | 3.38 | 8.09 | 93 | 1004.6 |
| 20260503034005 | 45 | 25 | 1.0 | 3.0 | 1.40 | 3.38 | 7.97 | 94 | 1004.5 |
| 20260503033505 | 45 | 15 | 2.0 | 3.0 | 1.42 | 3.38 | 7.87 | 94 | 1004.6 |
| 20260503033005 | 46 | 7 | 2.0 | 3.0 | 1.42 | 3.38 | 7.75 | 94 | 1004.6 |
| 20260503032504 | 46 | 25 | 1.0 | 3.0 | 1.40 | 3.38 | 7.63 | 94 | 1004.6 |
| 20260503032005 | 46 | 342 | 1.0 | 3.0 | 1.40 | 3.38 | 7.51 | 94 | 1004.6 |
| 20260503031505 | 46 | 33 | 2.0 | 3.0 | 1.40 | 3.38 | 7.39 | 94 | 1004.5 |
| 20260503025005 | 46 | 43 | 1.0 | 3.0 | 1.40 | 3.38 | 6.81 | 94 | 1004.4 |
| 20260503024506 | 46 | 11 | 1.0 | 3.0 | 1.40 | 3.38 | 6.69 | 94 | 1004.4 |
| 20260503024005 | 46 | 268 | 0.0 | 2.0 | 1.40 | 3.38 | 6.57 | 94 | 1004.5 |
| 20260503023505 | 46 | 269 | 0.0 | 1.0 | 1.40 | 3.38 | 6.45 | 94 | 1004.5 |
| 20260503023005 | 46 | 265 | 0.0 | 1.0 | 1.40 | 3.38 | 6.33 | 94 | 1004.6 |
| 20260503022505 | 46 | 268 | 0.0 | 1.0 | 1.42 | 3.38 | 6.23 | 94 | 1004.5 |
| 20260503021504 | 46 | 266 | 0.0 | 1.0 | 1.40 | 3.38 | 5.99 | 94 | 1004.4 |
| 20260503021005 | 46 | 271 | 0.0 | 1.0 | 1.40 | 3.38 | 5.87 | 94 | 1004.4 |
| 20260503020504 | 46 | 263 | 0.0 | 1.0 | 1.40 | 3.38 | 5.75 | 94 | 1004.4 |
| 20260503020006 | 46 | 275 | 0.0 | 2.0 | 1.40 | 3.38 | 5.63 | 94 | 1004.4 |
| 20260503015505 | 46 | 266 | 0.0 | 3.0 | 1.42 | 3.38 | 5.53 | 94 | 1004.4 |
| 20260503015005 | 46 | 250 | 1.0 | 3.0 | 1.42 | 3.38 | 5.41 | 94 | 1004.5 |
| 20260503014505 | 46 | 219 | 1.0 | 2.0 | 1.40 | 3.38 | 5.29 | 94 | 1004.5 |
| 20260503014005 | 46 | 225 | 1.0 | 2.0 | 1.40 | 3.38 | 5.17 | 94 | 1004.4 |
| 20260503013005 | 46 | 218 | 0.0 | 1.0 | 1.40 | 3.38 | 4.93 | 94 | 1004.3 |
| 20260503012505 | 46 | 216 | 0.0 | 1.0 | 1.40 | 3.38 | 4.81 | 94 | 1004.4 |
| 20260503012005 | 46 | 228 | 0.0 | 1.0 | 1.42 | 3.38 | 4.71 | 93 | 1004.3 |
| 20260503011506 | 46 | 215 | 0.0 | 1.0 | 1.43 | 3.38 | 4.59 | 93 | 1004.3 |
| 20260503011005 | 46 | 219 | 0.0 | 1.0 | 1.41 | 3.38 | 4.47 | 93 | 1004.2 |
| 20260503010504 | 46 | 220 | 0.0 | 1.0 | 1.41 | 3.38 | 4.35 | 93 | 1004.2 |
| 20260503010006 | 46 | 221 | 0.0 | 1.0 | 1.41 | 3.38 | 4.23 | 93 | 1004.2 |
| 20260503005005 | 46 | 224 | 0.0 | 1.0 | 1.41 | 3.38 | 3.99 | 93 | 1004.2 |
| 20260503004505 | 46 | 232 | 0.0 | 1.0 | 1.43 | 3.38 | 3.89 | 93 | 1004.3 |
| 20260503004005 | 46 | 218 | 0.0 | 1.0 | 1.41 | 3.38 | 3.77 | 93 | 1004.3 |
| 20260503003505 | 46 | 222 | 0.0 | 1.0 | 1.41 | 3.38 | 3.65 | 93 | 1004.2 |
| 20260503003005 | 46 | 223 | 0.0 | 1.0 | 1.41 | 3.38 | 3.53 | 93 | 1004.2 |
| 20260503002005 | 46 | 241 | 0.0 | 1.0 | 1.41 | 3.38 | 3.29 | 93 | 1004.2 |
| 20260503001005 | 46 | 221 | 0.0 | 1.0 | 1.42 | 3.38 | 3.06 | 93 | 1004.1 |
| 20260503000505 | 46 | 222 | 0.0 | 1.0 | 1.40 | 3.38 | 2.94 | 93 | 1004.1 |
| 20260503000007 | 46 | 177 | 0.0 | 1.0 | 1.40 | 3.37 | 2.82 | 93 | 1004.1 |
| 20260502235505 | 46 | 176 | 0.0 | 1.0 | 1.40 | 3.37 | 2.70 | 93 | 1004.1 |
| 20260502234504 | 46 | 177 | 0.0 | 1.0 | 1.40 | 3.37 | 2.46 | 92 | 1004.4 |
| 20260502234005 | 46 | 177 | 0.0 | 1.0 | 1.42 | 3.38 | 2.36 | 92 | 1004.4 |
| 20260502233504 | 46 | 175 | 0.0 | 1.0 | 1.42 | 3.38 | 2.24 | 92 | 1004.5 |
| 20260502233007 | 46 | 175 | 0.0 | 1.0 | 1.40 | 3.38 | 2.12 | 92 | 1004.5 |
| 20260502232504 | 46 | 175 | 0.0 | 1.0 | 1.40 | 3.37 | 2.00 | 92 | 1004.4 |
| 20260502232005 | 47 | 174 | 0.0 | 1.0 | 1.40 | 3.37 | 1.88 | 92 | 1004.5 |
| 20260502231505 | 47 | 174 | 0.0 | 1.0 | 1.40 | 3.37 | 1.76 | 92 | 1004.5 |
| 20260502230005 | 47 | 175 | 0.0 | 1.0 | 1.42 | 3.38 | 1.42 | 92 | 1004.5 |
| 20260502225505 | 47 | 178 | 0.0 | 1.0 | 1.40 | 3.38 | 1.30 | 92 | 1004.4 |
| 20260502225006 | 47 | 174 | 0.0 | 1.0 | 1.38 | 3.37 | 1.18 | 92 | 1004.4 |
| 20260502224005 | 48 | 176 | 0.0 | 1.0 | 1.38 | 3.37 | 0.94 | 92 | 1004.5 |
| 20260502223005 | 48 | 174 | 0.0 | 2.0 | 1.40 | 3.38 | 0.72 | 92 | 1004.5 |
| 20260502222504 | 48 | 173 | 0.0 | 2.0 | 1.40 | 3.38 | 0.60 | 92 | 1004.5 |
| 20260502222005 | 48 | 172 | 1.0 | 2.0 | 1.40 | 3.38 | 0.48 | 92 | 1004.5 |
| 20260502221505 | 48 | 175 | 0.0 | 2.0 | 1.38 | 3.37 | 0.36 | 92 | 1004.5 |
| 20260502220504 | 48 | 157 | 1.0 | 2.0 | 1.38 | 3.37 | 0.12 | 92 | 1004.5 |
| 20260502215505 | 48 | 159 | 0.0 | 2.0 | 1.42 | 3.38 | 3.36 | 91 | 1004.4 |
| 20260502215005 | 48 | 156 | 0.0 | 2.0 | 1.42 | 3.38 | 3.35 | 91 | 1004.4 |
| 20260502214505 | 48 | 158 | 0.0 | 2.0 | 1.40 | 3.37 | 3.34 | 91 | 1004.4 |
| 20260502214005 | 48 | 161 | 1.0 | 2.0 | 1.40 | 3.37 | 3.32 | 91 | 1004.4 |
| 20260502213505 | 49 | 158 | 0.0 | 2.0 | 1.40 | 3.37 | 3.31 | 91 | 1004.4 |
| 20260502213006 | 49 | 161 | 0.0 | 1.0 | 1.40 | 3.37 | 3.30 | 91 | 1004.5 |
| 20260502212504 | 49 | 147 | 0.0 | 1.0 | 1.40 | 3.37 | 3.29 | 91 | 1004.5 |
| 20260502212004 | 49 | 144 | 0.0 | 1.0 | 1.42 | 3.38 | 3.28 | 91 | 1004.4 |
| 20260502211506 | 49 | 160 | 0.0 | 1.0 | 1.40 | 3.38 | 3.27 | 91 | 1004.5 |
| 20260502210505 | 49 | 156 | 0.0 | 2.0 | 1.40 | 3.37 | 3.24 | 91 | 1004.4 |
| 20260502210006 | 49 | 156 | 0.0 | 2.0 | 1.40 | 3.37 | 3.23 | 91 | 1004.3 |
| 20260502205505 | 49 | 162 | 0.0 | 1.0 | 1.40 | 3.37 | 3.22 | 91 | 1004.2 |
| 20260502205005 | 49 | 154 | 0.0 | 3.0 | 1.40 | 3.37 | 3.21 | 91 | 1004.3 |
| 20260502204504 | 49 | 163 | 0.0 | 3.0 | 1.42 | 3.38 | 3.20 | 91 | 1004.3 |
| 20260502203505 | 49 | 157 | 1.0 | 5.0 | 1.40 | 3.37 | 3.17 | 91 | 1004.3 |